Vorticity
nan nan nan nan nan nan nan nan nan nan nan nan nan nan nan nan nan nan nan nan nan nan nan nan nan nan nan nan nan nan nan nan nan nan nan nan nan nan nan nan nan nan nan
nan 10 8 5 5 5 5 4 4 5 5 5 4 5 5 5 5 5 6 5 5 5 5 7 6 6 6 6 6 6 6 6 5 5 4 2 3 5 5 6 6 5 nan
nan 8 7 7 6 6 5 4 5 5 4 4 5 6 5 5 7 6 4 5 5 6 6 6 6 6 7 6 6 6 6 4 6 4 2 2 6 7 6 5 4 7 nan
nan 6 9 8 6 6 5 5 5 5 4 4 5 5 5 6 6 6 5 5 5 5 5 5 6 6 6 5 6 6 5 4 4 2 4 8 7 6 6 5 5 5 nan
nan 6 10 8 6 6 5 5 5 5 4 4 5 4 5 5 5 5 7 6 5 5 6 5 6 6 6 6 7 6 4 6 3 -0 5 8 8 8 5 5 6 5 nan
nan 8 10 7 6 5 6 5 4 4 4 5 5 4 5 5 4 4 5 6 7 5 5 4 6 7 6 5 6 6 6 3 1 2 6 6 7 10 4 4 4 6 nan
nan 7 12 8 5 6 6 5 5 5 5 5 5 5 4 4 3 4 5 5 5 5 6 6 6 6 6 5 6 5 5 2 3 5 5 6 7 8 6 5 5 5 nan
nan 8 11 11 7 7 6 5 6 5 5 5 5 5 5 5 5 5 6 5 4 5 6 6 6 6 5 5 4 6 5 4 6 9 6 6 7 7 6 4 5 5 nan
nan 6 7 10 11 10 7 6 5 5 5 5 5 4 4 4 5 5 6 6 6 6 5 6 6 5 5 5 4 5 6 5 5 8 7 7 9 6 5 5 5 4 nan
nan 5 7 7 5 7 14 13 7 6 6 5 5 4 6 7 5 5 6 6 7 7 7 6 5 6 5 5 5 4 5 4 5 8 8 9 10 6 5 5 5 5 nan
nan 8 7 5 7 7 6 12 14 9 8 7 7 6 3 5 9 9 7 6 6 6 7 8 8 6 6 6 6 5 3 3 6 7 12 10 8 6 5 6 6 5 nan
nan 4 6 8 8 7 7 9 9 9 9 10 8 8 9 8 7 9 9 9 8 7 9 10 9 9 6 4 9 7 5 8 6 6 10 11 7 6 5 6 6 5 nan
nan 6 6 3 8 8 8 7 8 9 8 8 8 8 7 6 7 7 7 8 11 8 7 9 9 10 10 8 7 8 6 6 6 7 10 10 8 7 6 6 6 5 nan
nan 4 6 5 6 6 7 8 8 7 8 7 9 7 6 7 7 7 7 8 7 9 8 7 7 6 7 8 7 7 7 6 6 7 10 11 10 8 7 7 6 5 nan
nan 7 6 8 5 8 4 7 5 7 8 9 9 8 7 7 7 7 7 8 7 7 7 7 7 7 7 7 7 7 8 8 6 6 8 13 12 8 6 7 7 7 nan
nan 8 7 9 6 7 6 6 5 6 9 9 7 8 6 7 8 7 7 7 8 8 8 8 7 7 7 7 7 8 7 9 9 6 5 11 12 9 7 7 7 8 nan
nan 8 7 8 10 4 6 6 9 8 7 7 8 7 7 8 7 7 7 8 8 8 8 7 7 7 7 8 8 8 9 9 8 8 7 7 10 12 11 8 8 7 nan
nan 9 5 7 6 5 7 7 7 8 8 9 8 9 8 8 8 7 8 8 8 8 8 8 7 7 7 8 9 8 8 9 9 9 8 8 8 11 14 14 10 8 nan
nan 9 8 6 5 10 10 9 10 10 9 9 9 9 10 9 9 8 7 8 8 8 7 7 7 7 8 8 8 8 8 9 9 9 8 8 8 7 10 15 14 12 nan
nan 9 10 8 8 10 9 8 8 10 11 11 10 10 11 10 9 7 8 8 7 7 7 8 8 7 7 8 10 9 9 9 12 10 9 9 9 9 8 8 11 14 nan
nan 8 8 7 9 6 7 7 8 8 8 10 10 10 8 8 9 7 8 8 8 8 7 6 8 9 9 8 9 10 9 8 10 11 12 12 12 11 11 10 9 9 nan
nan 7 9 7 7 5 7 9 10 9 9 8 9 8 7 9 9 7 7 8 8 8 9 9 6 7 11 9 5 9 9 6 5 7 11 11 13 13 13 12 12 11 nan
nan 9 8 9 8 7 7 7 8 9 9 8 9 10 10 9 9 9 9 9 9 9 9 11 9 7 8 9 8 6 8 9 6 5 7 9 10 11 10 11 11 11 nan
nan 9 9 9 8 8 8 7 8 7 7 8 9 9 10 12 9 12 12 11 9 9 10 8 9 9 9 8 9 8 8 10 8 7 6 7 7 8 8 8 8 9 nan
nan 10 10 9 8 9 9 7 6 8 9 9 8 9 8 8 10 10 10 11 10 9 10 9 9 8 7 8 8 9 8 8 9 10 9 7 6 7 10 9 8 9 nan
nan nan nan nan nan nan nan nan nan nan nan nan nan nan nan nan nan nan nan nan nan nan nan nan nan nan nan nan nan nan nan nan nan nan nan nan nan nan nan nan nan nan nan
CAPE
1580 2304 2669 2931 2570 2096 1926 1798 2074 2334 2469 2938 2812 2701 2625 2276 1957 1890 1687 1696 1641 1475 1364 1450 1366 1463 1303 1173 930 813 670 871 1209 585 946 1140 837 767 878 898 691 0 0
1892 2641 2562 3157 2844 2147 2115 2292 2188 2595 2546 2664 2813 2607 2388 2315 2190 2196 1980 1717 1762 1589 1556 1562 1488 1396 1059 1145 682 552 470 1169 1074 1115 988 893 343 185 497 235 178 81 0
2356 2630 2954 3185 3083 2321 2161 2431 2417 2459 2358 2413 2629 2376 2359 2564 2413 2164 1783 1754 1782 1499 1498 1718 1614 1488 1068 862 592 919 664 897 1181 806 890 858 85 179 530 898 37 732 180
2202 2487 2775 3254 3215 2589 2283 2446 2660 2353 2096 2390 2352 2477 2488 2356 2222 1988 1929 1855 1963 2018 1846 1866 1653 1142 847 935 855 1144 1241 1220 1176 899 617 633 204 767 491 633 0 338 942
2019 2204 2600 3037 3128 2585 2188 2457 2649 2801 2522 2177 1960 2443 2018 1881 1919 2062 2002 1904 1977 2006 1791 1883 1711 1009 962 1583 1158 1442 697 857 1007 589 261 377 364 93 534 643 688 238 777
1761 1968 2752 2975 2792 2628 2367 2219 2385 2684 2541 2256 1920 1965 1970 1381 1518 1500 1556 2045 1988 1985 1832 1862 1389 1357 942 1258 962 938 982 884 617 170 132 687 301 275 452 172 163 865 583
1707 1814 2595 3223 3140 2995 2550 2361 2594 2702 2437 2170 2152 2141 2169 2068 1709 1757 1642 1605 1837 1711 1954 1803 1094 1436 1203 1230 1044 704 794 622 544 494 36 596 614 846 650 778 0 189 813
1610 2027 2430 2649 2996 2650 2434 2430 2462 2307 2158 2067 2162 2060 2027 2087 2097 2034 1902 1807 1528 1443 1579 1553 1137 1454 1426 1077 795 731 920 760 687 408 217 486 776 833 710 505 372 716 169
1984 2047 2096 2186 2369 2535 2478 2436 2294 2092 2000 2117 2090 2068 1982 1916 1905 1885 1960 1850 1862 1884 1453 1714 1780 1387 1448 1111 955 925 858 840 606 302 261 378 1289 1173 643 511 629 218 150
2058 2077 1927 1528 1241 1477 1434 2133 2242 2236 2096 2143 2157 2081 1934 1987 1775 1924 2255 2366 1799 1770 1819 1537 1451 1907 1861 1445 1161 964 817 835 687 301 353 319 1284 1415 902 687 850 1015 62
1314 1032 715 695 547 819 1020 1439 2091 2083 2137 1977 2067 2160 1919 1388 1450 1871 1874 2021 1763 1716 1807 1584 1467 1565 1814 1867 1500 1039 913 678 385 206 279 510 1356 1069 881 816 632 701 153
564 217 86 199 142 228 1094 1192 1112 1180 1512 1567 1603 1392 1262 1070 894 1315 1732 1680 1667 1444 1503 1682 1740 1494 1382 1233 1472 1552 958 609 419 190 632 822 1606 971 1343 1171 1147 755 462
260 176 72 110 42 112 156 148 606 1027 1214 1087 1302 1341 1115 845 808 1167 885 1002 1129 1462 1006 1249 1335 1224 907 940 884 1144 1034 619 470 502 534 1071 1552 1082 1535 1863 1243 795 814
141 75 9 23 47 41 45 146 240 723 934 750 904 742 528 397 341 173 176 354 679 796 847 781 592 481 361 481 459 527 614 748 592 415 513 1099 1680 1668 1741 1729 2048 1096 883
40 0 0 0 90 16 52 83 114 114 398 476 525 547 332 233 115 32 2 161 361 427 517 351 128 60 0 0 21 96 454 546 625 496 762 1120 1664 1568 1470 1630 1455 1365 1278
0 0 0 0 20 16 45 83 60 49 56 134 153 91 185 74 2 0 0 19 231 226 302 191 121 56 23 37 0 8 112 480 791 590 394 659 1658 1699 1551 1418 1464 1438 1354
0 0 0 0 1 0 20 20 84 24 2 1 32 4 15 52 4 12 11 42 194 205 153 114 86 55 76 77 93 76 184 183 295 603 524 541 433 1302 1677 1834 1623 1938 1649
0 0 0 0 0 0 4 140 218 100 19 0 3 5 0 104 26 72 49 106 66 74 77 27 18 0 0 0 27 94 327 323 508 675 673 673 511 513 843 1728 1492 1499 1427
0 0 0 0 0 0 26 135 205 91 50 11 0 0 13 115 141 48 62 22 15 37 25 8 0 0 18 15 5 21 77 183 257 402 478 482 745 820 895 1233 1478 1595 1637
0 0 0 0 48 260 112 68 8 0 26 17 15 22 32 149 140 63 55 3 4 70 74 33 24 15 22 33 9 342 498 292 248 297 312 426 716 613 1018 993 841 1202 1498
0 0 0 0 86 69 0 0 0 0 1 1 0 7 14 6 52 40 41 20 5 30 115 92 139 76 57 1 116 155 34 3 7 5 74 214 312 445 564 840 906 961 986
0 0 0 0 24 151 87 0 0 0 0 0 6 0 4 8 32 32 23 0 0 16 54 137 262 69 30 55 197 52 75 0 0 11 7 117 101 259 330 352 488 420 414
3 94 0 19 9 10 308 0 0 0 0 0 0 8 6 36 50 87 103 51 39 65 138 158 191 214 181 144 73 92 11 0 1 8 7 7 4 6 31 49 77 71 79
175 240 8 112 0 0 108 0 0 0 0 0 0 51 92 265 219 167 77 68 82 47 46 88 58 89 67 134 51 60 0 0 0 4 11 8 6 6 10 8 6 3 0
225 379 12 3 8 495 26 0 0 0 7 20 53 24 58 75 119 126 109 100 93 85 134 116 299 119 61 99 119 31 37 1 0 0 7 9 5 2 10 8 18 24 25
795 509 315 505 815 651 0 0 206 109 156 223 69 7 13 28 69 121 97 68 63 49 73 117 102 120 133 126 31 15 28 62 2 0 9 13 6 4 3 3 4 2 15